Simultaneous Nadir Overpasses (SNOs) Predictions

Prediction of SNOs between GOES-17 and METOP-A Satellite Orbit:

Table of predicted SNOs for the next 14.0 days since TLE Epoch: 3/4/2022
Index Date Time (GOES-17) GOES-17 Lat,Lon METOP-A Lat,Lon Distance(km) Time Diff (sec)
1 03/05/2022 17:03:25 0.02,-137.23 -0.76,-133.77 395.31 80
2 03/06/2022 05:22:00 -0.02,-137.23 -0.08,-137.60 41.59 80
3 03/08/2022 17:05:10 0.02,-137.23 -0.68,-134.05 362.03 80
4 03/09/2022 05:23:35 -0.02,-137.22 -0.13,-137.84 70.40 80
5 03/11/2022 17:06:53 0.02,-137.20 -0.63,-134.33 327.73 80
6 03/12/2022 05:25:08 -0.02,-137.19 -0.24,-138.07 100.81 80
7 03/14/2022 17:08:35 0.02,-137.17 -0.55,-134.60 292.77 80
8 03/15/2022 05:26:43 -0.03,-137.15 -0.27,-138.32 132.45 80
9 03/17/2022 17:12:55 0.02,-137.12 -0.44,-134.86 257.41 80
10 03/18/2022 05:28:17 -0.02,-137.11 -0.31,-138.57 165.26 80
